PIMOHWEATHER Station Historical Data
Daily Summary for June 11, 2020 Units:  Metric    English   Both
Daily Weekly Monthly Yearly
  High: Low: Average:
Temperature: 35.0 °C 25.0 °C 27.5 °C
Dew Point: 28.0 °C 25.0 °C 25.7 °C
Humidity: 99% 67% 91%
Wind Speed: 20km/h 0km/h 7.4km/h
Wind Gust: 28km/h - -
Wind- - SSW
Pressure: 1006.6 hPa 1000.4 hPa -
Precipitation: 50.80 mm    
 
 
Tabular Data for June 11, 2020
Time Temperature Dew Point Pressure Wind Wind Speed Wind Gust Humidity Rainfall Rate (Hourly) solar
00:04 28.0 °C 26.0 °C 1006.6 hPa Calm     90% 1.80 mm 0.00 W/m2
00:09 28.0 °C 26.0 °C 1006.2 hPa Calm     90% 1.80 mm 0.00 W/m2
00:14 28.0 °C 26.0 °C 1006.1 hPa Calm     91% 1.80 mm 0.00 W/m2
00:19 28.0 °C 26.0 °C 1006.2 hPa Calm     91% 1.80 mm 0.00 W/m2
00:24 28.0 °C 26.0 °C 1006.2 hPa Calm     91% 0.00 mm 0.00 W/m2
00:29 28.0 °C 26.0 °C 1006.2 hPa Calm     92% 0.00 mm 0.00 W/m2
00:34 28.0 °C 26.0 °C 1006.2 hPa Calm     92% 0.00 mm 0.00 W/m2
00:39 28.0 °C 26.0 °C 1006.1 hPa Calm     92% 0.00 mm 0.00 W/m2
00:44 28.0 °C 26.0 °C 1006.1 hPa Calm     93% 0.00 mm 0.00 W/m2
00:49 28.0 °C 26.0 °C 1006.2 hPa Calm     93% 0.00 mm 0.00 W/m2
00:54 27.0 °C 26.0 °C 1006.0 hPa North 2 km/h 8 km/h 92% 0.00 mm 0.00 W/m2
00:59 27.0 °C 26.0 °C 1006.1 hPa NNE 9 km/h 12 km/h 91% 0.00 mm 0.00 W/m2
01:04 27.0 °C 26.0 °C 1006.1 hPa North 9 km/h 12 km/h 91% 1.80 mm 0.00 W/m2
01:09 27.0 °C 26.0 °C 1006.0 hPa North 3 km/h 4 km/h 92% 3.61 mm 0.00 W/m2
01:14 27.0 °C 26.0 °C 1006.0 hPa NNE 8 km/h 12 km/h 92% 3.61 mm 0.00 W/m2
01:19 27.0 °C 25.0 °C 1005.9 hPa North 9 km/h 12 km/h 92% 3.61 mm 0.00 W/m2
01:24 26.0 °C 25.0 °C 1005.9 hPa North 9 km/h 12 km/h 93% 3.61 mm 0.00 W/m2
01:29 26.0 °C 25.0 °C 1005.8 hPa NNW 6 km/h 8 km/h 93% 1.80 mm 0.00 W/m2
01:34 26.0 °C 25.0 °C 1005.7 hPa Calm     93% 1.80 mm 0.00 W/m2
01:39 26.0 °C 25.0 °C 1005.8 hPa NNE 1 km/h 4 km/h 93% 1.80 mm 0.00 W/m2
01:44 26.0 °C 25.0 °C 1005.4 hPa Calm     93% 0.00 mm 0.00 W/m2
01:49 26.0 °C 25.0 °C 1005.4 hPa Calm     93% 1.80 mm 0.00 W/m2
01:54 26.0 °C 25.0 °C 1005.2 hPa NNE 8 km/h 12 km/h 93% 1.80 mm 0.00 W/m2
01:59 26.0 °C 25.0 °C 1005.3 hPa Calm     94% 1.80 mm 0.00 W/m2
02:04 26.0 °C 25.0 °C 1005.3 hPa Calm     94% 3.61 mm 0.00 W/m2
02:09 26.0 °C 26.0 °C 1005.3 hPa Calm     95% 5.41 mm 0.00 W/m2
02:14 26.0 °C 26.0 °C 1005.4 hPa Calm     96% 3.61 mm 0.00 W/m2
02:19 26.0 °C 26.0 °C 1005.5 hPa NE 6 km/h 12 km/h 96% 3.61 mm 0.00 W/m2
02:24 26.0 °C 25.0 °C 1005.4 hPa Calm     96% 3.61 mm 0.00 W/m2
02:29 26.0 °C 25.0 °C 1005.4 hPa Calm     96% 3.61 mm 0.00 W/m2
02:34 26.0 °C 25.0 °C 1005.2 hPa Calm     96% 1.80 mm 0.00 W/m2
02:39 26.0 °C 25.0 °C 1005.1 hPa ESE 2 km/h 4 km/h 96% 0.00 mm 0.00 W/m2
02:44 26.0 °C 25.0 °C 1005.2 hPa NNE 3 km/h 12 km/h 95% 1.80 mm 0.00 W/m2
02:49 26.0 °C 25.0 °C 1005.1 hPa NNE 4 km/h 12 km/h 95% 1.80 mm 0.00 W/m2
02:54 26.0 °C 25.0 °C 1005.2 hPa Calm   4 km/h 95% 3.61 mm 0.00 W/m2
02:59 26.0 °C 25.0 °C 1005.3 hPa Calm     96% 3.61 mm 0.00 W/m2
03:04 26.0 °C 25.0 °C 1005.4 hPa Calm   4 km/h 96% 3.61 mm 0.00 W/m2
03:09 26.0 °C 25.0 °C 1005.3 hPa Calm     96% 3.61 mm 0.00 W/m2
03:14 26.0 °C 25.0 °C 1005.4 hPa Calm     96% 3.61 mm 0.00 W/m2
03:19 26.0 °C 25.0 °C 1005.4 hPa Calm     96% 5.41 mm 0.00 W/m2
03:24 25.0 °C 25.0 °C 1005.5 hPa NE 1 km/h 4 km/h 96% 5.41 mm 0.00 W/m2
03:29 25.0 °C 25.0 °C 1005.7 hPa Calm     96% 5.41 mm 0.00 W/m2
03:34 25.0 °C 25.0 °C 1005.5 hPa Calm     97% 3.61 mm 0.00 W/m2
03:39 26.0 °C 25.0 °C 1005.5 hPa Calm     97% 3.61 mm 0.00 W/m2
03:44 26.0 °C 25.0 °C 1005.4 hPa Calm     97% 3.61 mm 0.00 W/m2
03:49 25.0 °C 25.0 °C 1005.3 hPa Calm     97% 3.61 mm 0.00 W/m2
03:54 25.0 °C 25.0 °C 1005.3 hPa Calm     97% 1.80 mm 0.00 W/m2
03:59 25.0 °C 25.0 °C 1005.4 hPa NNE 1 km/h 4 km/h 97% 1.80 mm 0.00 W/m2
04:04 25.0 °C 25.0 °C 1005.2 hPa Calm     97% 1.80 mm 0.00 W/m2
04:09 25.0 °C 25.0 °C 1005.3 hPa Calm     97% 3.61 mm 0.00 W/m2
04:14 25.0 °C 25.0 °C 1005.1 hPa Calm     97% 3.61 mm 0.00 W/m2
04:19 25.0 °C 25.0 °C 1005.4 hPa Calm     97% 3.61 mm 0.00 W/m2
04:24 25.0 °C 25.0 °C 1005.2 hPa Calm     97% 3.61 mm 0.00 W/m2
04:29 25.0 °C 25.0 °C 1005.1 hPa Calm     97% 5.41 mm 0.00 W/m2
04:34 25.0 °C 25.0 °C 1005.2 hPa Calm     97% 7.19 mm 0.00 W/m2
04:39 25.0 °C 25.0 °C 1005.3 hPa Calm     98% 7.19 mm 0.00 W/m2
04:44 25.0 °C 25.0 °C 1005.3 hPa Calm     98% 7.19 mm 0.00 W/m2
04:49 25.0 °C 25.0 °C 1005.2 hPa Calm     98% 7.19 mm 0.00 W/m2
04:54 26.0 °C 25.0 °C 1005.1 hPa Calm     98% 5.41 mm 0.00 W/m2
04:59 25.0 °C 25.0 °C 1005.2 hPa Calm     98% 5.41 mm 0.00 W/m2
05:04 25.0 °C 25.0 °C 1005.1 hPa Calm     98% 5.41 mm 0.00 W/m2
05:09 25.0 °C 25.0 °C 1005.1 hPa Calm     98% 5.41 mm 0.00 W/m2
05:14 25.0 °C 25.0 °C 1005.1 hPa Calm     98% 7.19 mm 0.00 W/m2
05:19 25.0 °C 25.0 °C 1005.0 hPa Calm     98% 7.19 mm 0.00 W/m2
05:24 25.0 °C 25.0 °C 1005.1 hPa Calm     99% 5.41 mm 0.00 W/m2
05:29 25.0 °C 25.0 °C 1005.1 hPa North 2 km/h 4 km/h 99% 5.41 mm 0.00 W/m2
05:34 25.0 °C 25.0 °C 1005.1 hPa North 5 km/h 8 km/h 99% 3.61 mm 0.00 W/m2
05:39 25.0 °C 25.0 °C 1005.1 hPa NNE 6 km/h 8 km/h 99% 5.41 mm 0.00 W/m2
05:44 25.0 °C 25.0 °C 1005.3 hPa NNE 7 km/h 8 km/h 99% 5.41 mm 0.00 W/m2
05:49 25.0 °C 25.0 °C 1005.2 hPa NNE 8 km/h 12 km/h 99% 5.41 mm 0.00 W/m2
05:54 25.0 °C 25.0 °C 1005.1 hPa North 13 km/h 16 km/h 99% 5.41 mm 0.00 W/m2
05:59 25.0 °C 25.0 °C 1005.2 hPa North 11 km/h 12 km/h 99% 5.41 mm 0.00 W/m2
06:04 25.0 °C 25.0 °C 1005.2 hPa North 10 km/h 12 km/h 99% 3.61 mm 0.00 W/m2
06:09 25.0 °C 25.0 °C 1004.9 hPa NNW 10 km/h 12 km/h 99% 1.80 mm 0.33 W/m2
06:14 25.0 °C 25.0 °C 1004.9 hPa North 10 km/h 12 km/h 98% 1.80 mm 0.84 W/m2
06:19 25.0 °C 25.0 °C 1005.0 hPa North 10 km/h 12 km/h 98% 3.61 mm 1.06 W/m2
06:24 25.0 °C 25.0 °C 1005.1 hPa North 8 km/h 12 km/h 98% 5.41 mm 1.31 W/m2
06:29 25.0 °C 25.0 °C 1005.1 hPa NNW 9 km/h 12 km/h 98% 5.41 mm 1.61 W/m2
06:34 25.0 °C 25.0 °C 1005.1 hPa NNW 6 km/h 8 km/h 98% 5.41 mm 2.19 W/m2
06:39 25.0 °C 25.0 °C 1005.2 hPa NNW 5 km/h 8 km/h 98% 5.41 mm 3.50 W/m2
06:44 25.0 °C 25.0 °C 1005.2 hPa NNW 6 km/h 8 km/h 98% 5.41 mm 5.06 W/m2
06:49 25.0 °C 25.0 °C 1005.2 hPa North 7 km/h 8 km/h 99% 3.61 mm 7.39 W/m2
06:54 25.0 °C 25.0 °C 1005.1 hPa North 5 km/h 8 km/h 99% 3.61 mm 9.82 W/m2
06:59 25.0 °C 25.0 °C 1005.2 hPa North 5 km/h 8 km/h 99% 1.80 mm 11.83 W/m2
07:04 25.0 °C 25.0 °C 1005.2 hPa North 6 km/h 8 km/h 99% 1.80 mm 14.19 W/m2
07:09 25.0 °C 25.0 °C 1005.1 hPa NNW 5 km/h 8 km/h 99% 1.80 mm 17.80 W/m2
07:14 25.0 °C 25.0 °C 1005.1 hPa NNW 3 km/h 4 km/h 99% 1.80 mm 20.75 W/m2
07:19 25.0 °C 25.0 °C 1005.2 hPa WNW 4 km/h 8 km/h 99% 0.00 mm 23.73 W/m2
07:24 25.0 °C 25.0 °C 1005.4 hPa NW 4 km/h 8 km/h 99% 0.00 mm 26.62 W/m2
07:29 25.0 °C 25.0 °C 1005.2 hPa NW 5 km/h 8 km/h 99% 0.00 mm 29.31 W/m2
07:34 25.0 °C 25.0 °C 1005.3 hPa NW 3 km/h 4 km/h 99% 1.80 mm 32.37 W/m2
07:39 25.0 °C 25.0 °C 1005.3 hPa NW 3 km/h 4 km/h 99% 1.80 mm 35.67 W/m2
07:44 25.0 °C 25.0 °C 1005.4 hPa NW 5 km/h 12 km/h 99% 1.80 mm 40.26 W/m2
07:49 25.0 °C 25.0 °C 1005.3 hPa NW 10 km/h 12 km/h 99% 0.00 mm 44.11 W/m2
07:54 25.0 °C 25.0 °C 1005.4 hPa NNW 9 km/h 12 km/h 98% 0.00 mm 48.99 W/m2
07:59 25.0 °C 25.0 °C 1005.4 hPa NNW 6 km/h 8 km/h 98% 0.00 mm 55.24 W/m2
08:04 25.0 °C 25.0 °C 1005.5 hPa NNW 8 km/h 8 km/h 98% 0.00 mm 64.12 W/m2
08:09 25.0 °C 25.0 °C 1005.4 hPa WNW 9 km/h 12 km/h 98% 0.00 mm 73.23 W/m2
08:14 26.0 °C 25.0 °C 1005.4 hPa NW 2 km/h 4 km/h 98% 0.00 mm 81.81 W/m2
08:19 26.0 °C 25.0 °C 1005.3 hPa WNW 4 km/h 4 km/h 98% 0.00 mm 88.47 W/m2
08:24 26.0 °C 25.0 °C 1005.3 hPa Calm     98% 0.00 mm 99.72 W/m2
08:29 26.0 °C 26.0 °C 1005.3 hPa Calm     98% 0.00 mm 113.01 W/m2
08:34 26.0 °C 26.0 °C 1005.3 hPa NW 6 km/h 8 km/h 98% 0.00 mm 126.61 W/m2
08:39 26.0 °C 26.0 °C 1005.3 hPa NNW 6 km/h 8 km/h 98% 0.00 mm 138.46 W/m2
08:44 26.0 °C 26.0 °C 1005.4 hPa North 5 km/h 8 km/h 97% 0.00 mm 150.00 W/m2
08:49 26.0 °C 25.0 °C 1005.4 hPa NW 10 km/h 12 km/h 96% 0.00 mm 159.60 W/m2
08:54 27.0 °C 25.0 °C 1005.2 hPa NW 10 km/h 12 km/h 93% 0.00 mm 168.31 W/m2
08:59 27.0 °C 25.0 °C 1005.1 hPa NW 8 km/h 12 km/h 91% 0.00 mm 173.71 W/m2
09:04 27.0 °C 25.0 °C 1005.1 hPa NW 8 km/h 12 km/h 91% 0.00 mm 175.21 W/m2
09:09 27.0 °C 25.0 °C 1004.9 hPa NW 6 km/h 8 km/h 90% 0.00 mm 176.06 W/m2
09:14 27.0 °C 25.0 °C 1004.9 hPa NW 9 km/h 12 km/h 90% 0.00 mm 177.04 W/m2
09:19 27.0 °C 25.0 °C 1004.7 hPa NW 9 km/h 12 km/h 90% 0.00 mm 179.95 W/m2
09:24 27.0 °C 26.0 °C 1004.7 hPa NW 8 km/h 8 km/h 90% 0.00 mm 185.07 W/m2
09:29 28.0 °C 26.0 °C 1004.7 hPa NNW 8 km/h 8 km/h 90% 0.00 mm 190.99 W/m2
09:34 28.0 °C 26.0 °C 1004.7 hPa NW 5 km/h 8 km/h 89% 0.00 mm 197.10 W/m2
09:39 28.0 °C 26.0 °C 1004.7 hPa NW 1 km/h 4 km/h 88% 0.00 mm 201.87 W/m2
09:44 28.0 °C 25.0 °C 1004.7 hPa NW 9 km/h 12 km/h 87% 0.00 mm 204.91 W/m2
09:49 28.0 °C 26.0 °C 1004.7 hPa NW 9 km/h 12 km/h 87% 0.00 mm 207.72 W/m2
09:54 28.0 °C 26.0 °C 1004.7 hPa NW 7 km/h 12 km/h 86% 0.00 mm 207.89 W/m2
09:59 28.0 °C 25.0 °C 1004.9 hPa NW 13 km/h 16 km/h 85% 0.00 mm 207.62 W/m2
10:04 28.0 °C 26.0 °C 1004.9 hPa NNW 9 km/h 12 km/h 86% 0.00 mm 205.86 W/m2
10:09 29.0 °C 26.0 °C 1004.8 hPa NW 10 km/h 12 km/h 85% 0.00 mm 209.04 W/m2
10:14 28.0 °C 25.0 °C 1004.7 hPa NW 12 km/h 16 km/h 84% 0.00 mm 212.62 W/m2
10:19 28.0 °C 26.0 °C 1004.9 hPa NW 10 km/h 12 km/h 84% 0.00 mm 220.08 W/m2
10:24 29.0 °C 26.0 °C 1004.9 hPa NNW 8 km/h 12 km/h 84% 0.00 mm 237.03 W/m2
10:29 29.0 °C 26.0 °C 1004.9 hPa NW 14 km/h 16 km/h 84% 0.00 mm 263.21 W/m2
10:34 29.0 °C 26.0 °C 1004.9 hPa NW 10 km/h 12 km/h 83% 0.00 mm 283.77 W/m2
10:39 29.0 °C 26.0 °C 1004.8 hPa NNW 14 km/h 20 km/h 83% 0.00 mm 315.84 W/m2
10:44 29.0 °C 26.0 °C 1004.7 hPa NNW 13 km/h 20 km/h 84% 0.00 mm 377.60 W/m2
10:49 29.0 °C 26.0 °C 1004.9 hPa NW 10 km/h 16 km/h 83% 0.00 mm 415.64 W/m2
10:54 30.0 °C 26.0 °C 1004.7 hPa NW 12 km/h 12 km/h 82% 0.00 mm 413.37 W/m2
10:59 30.0 °C 26.0 °C 1004.6 hPa NNW 17 km/h 20 km/h 81% 0.00 mm 383.62 W/m2
11:04 30.0 °C 26.0 °C 1004.4 hPa NNW 17 km/h 20 km/h 82% 0.00 mm 420.81 W/m2
11:09 30.0 °C 26.0 °C 1004.6 hPa NNW 10 km/h 16 km/h 80% 0.00 mm 440.97 W/m2
11:14 30.0 °C 26.0 °C 1004.6 hPa North 4 km/h 4 km/h 80% 0.00 mm 529.25 W/m2
11:19 30.0 °C 26.0 °C 1004.4 hPa WNW 10 km/h 16 km/h 80% 0.00 mm 563.26 W/m2
11:24 31.0 °C 26.0 °C 1004.2 hPa WNW 14 km/h 20 km/h 79% 0.00 mm 588.87 W/m2
11:29 31.0 °C 26.0 °C 1004.2 hPa NW 12 km/h 16 km/h 78% 0.00 mm 582.63 W/m2
11:34 31.0 °C 26.0 °C 1004.3 hPa NW 13 km/h 16 km/h 77% 0.00 mm 587.14 W/m2
11:39 31.0 °C 26.0 °C 1004.0 hPa NW 8 km/h 12 km/h 77% 0.00 mm 550.07 W/m2
11:44 32.0 °C 26.0 °C 1004.0 hPa NNW 9 km/h 12 km/h 77% 0.00 mm 652.49 W/m2
11:49 32.0 °C 26.0 °C 1003.8 hPa NW 13 km/h 16 km/h 76% 0.00 mm 568.22 W/m2
11:54 31.0 °C 26.0 °C 1003.7 hPa NW 20 km/h 24 km/h 76% 0.00 mm 573.63 W/m2
11:59 31.0 °C 26.0 °C 1003.5 hPa NW 17 km/h 20 km/h 76% 0.00 mm 654.32 W/m2
12:04 31.0 °C 26.0 °C 1003.2 hPa NW 11 km/h 16 km/h 76% 0.00 mm 662.72 W/m2
12:09 31.0 °C 26.0 °C 1003.2 hPa North 12 km/h 16 km/h 75% 0.00 mm 552.10 W/m2
12:14 31.0 °C 26.0 °C 1003.2 hPa NW 6 km/h 16 km/h 75% 0.00 mm 513.78 W/m2
12:19 32.0 °C 27.0 °C 1002.9 hPa NW 8 km/h 12 km/h 75% 0.00 mm 597.56 W/m2
12:24 32.0 °C 27.0 °C 1002.7 hPa NW 12 km/h 16 km/h 75% 0.00 mm 525.38 W/m2
12:29 31.0 °C 26.0 °C 1002.7 hPa NW 18 km/h 20 km/h 76% 0.00 mm 601.13 W/m2
12:34 31.0 °C 26.0 °C 1002.7 hPa NW 8 km/h 12 km/h 76% 0.00 mm 618.58 W/m2
12:39 32.0 °C 27.0 °C 1002.6 hPa Calm     76% 0.00 mm 489.78 W/m2
12:44 32.0 °C 26.0 °C 1002.4 hPa NW 17 km/h 20 km/h 76% 0.00 mm 501.30 W/m2
12:49 31.0 °C 26.0 °C 1002.4 hPa NNW 18 km/h 24 km/h 77% 0.00 mm 384.94 W/m2
12:54 31.0 °C 26.0 °C 1002.1 hPa NNW 9 km/h 12 km/h 77% 0.00 mm 582.19 W/m2
12:59 32.0 °C 27.0 °C 1002.1 hPa NW 13 km/h 20 km/h 76% 0.00 mm 565.90 W/m2
13:04 32.0 °C 27.0 °C 1002.1 hPa North 14 km/h 20 km/h 76% 0.00 mm 558.90 W/m2
13:09 32.0 °C 26.0 °C 1001.7 hPa North 15 km/h 16 km/h 74% 0.00 mm 563.57 W/m2
13:14 32.0 °C 27.0 °C 1001.6 hPa North 8 km/h 12 km/h 75% 0.00 mm 575.32 W/m2
13:19 32.0 °C 27.0 °C 1001.5 hPa NNW 20 km/h 20 km/h 75% 0.00 mm 586.87 W/m2
13:24 32.0 °C 26.0 °C 1001.4 hPa NNW 14 km/h 20 km/h 72% 0.00 mm 578.65 W/m2
13:29 32.0 °C 27.0 °C 1001.2 hPa NNW 14 km/h 16 km/h 74% 0.00 mm 593.69 W/m2
13:34 33.0 °C 27.0 °C 1001.4 hPa NW 18 km/h 28 km/h 73% 0.00 mm 614.27 W/m2
13:39 33.0 °C 26.0 °C 1001.3 hPa NNW 10 km/h 20 km/h 69% 0.00 mm 606.34 W/m2
13:44 33.0 °C 26.0 °C 1001.3 hPa NW 15 km/h 20 km/h 69% 0.00 mm 598.86 W/m2
13:49 33.0 °C 26.0 °C 1001.3 hPa WNW 6 km/h 12 km/h 67% 0.00 mm 625.48 W/m2
13:54 33.0 °C 26.0 °C 1001.1 hPa Calm   4 km/h 70% 0.00 mm 525.65 W/m2
13:59 33.0 °C 27.0 °C 1001.1 hPa Calm     72% 0.00 mm 631.69 W/m2
14:04 34.0 °C 28.0 °C 1001.1 hPa Calm     72% 0.00 mm 636.46 W/m2
14:09 34.0 °C 28.0 °C 1001.2 hPa Calm     72% 0.00 mm 624.74 W/m2
14:14 34.0 °C 28.0 °C 1001.1 hPa Calm   4 km/h 74% 0.00 mm 640.33 W/m2
14:19 33.0 °C 28.0 °C 1001.3 hPa NW 5 km/h 8 km/h 73% 0.00 mm 572.87 W/m2
14:24 34.0 °C 28.0 °C 1001.1 hPa NW 15 km/h 16 km/h 73% 0.00 mm 586.82 W/m2
14:29 34.0 °C 28.0 °C 1001.1 hPa Calm     71% 0.00 mm 608.91 W/m2
14:34 34.0 °C 28.0 °C 1001.0 hPa Calm     70% 0.00 mm 620.93 W/m2
14:39 34.0 °C 28.0 °C 1000.9 hPa Calm     70% 0.00 mm 654.18 W/m2
14:44 34.0 °C 28.0 °C 1000.9 hPa Calm   4 km/h 71% 0.00 mm 671.45 W/m2
14:49 35.0 °C 28.0 °C 1000.7 hPa Calm     69% 0.00 mm 661.74 W/m2
14:54 35.0 °C 28.0 °C 1000.6 hPa Calm     72% 0.00 mm 640.99 W/m2
14:59 34.0 °C 28.0 °C 1000.5 hPa Calm     72% 0.00 mm 598.37 W/m2
15:04 34.0 °C 28.0 °C 1000.4 hPa Calm     71% 0.00 mm 615.37 W/m2
15:09 35.0 °C 28.0 °C 1000.5 hPa Calm     70% 0.00 mm 618.43 W/m2
15:14 35.0 °C 28.0 °C 1000.4 hPa Calm     68% 0.00 mm 576.74 W/m2
15:19 35.0 °C 28.0 °C 1000.4 hPa Calm   4 km/h 68% 0.00 mm 524.70 W/m2
15:24 35.0 °C 28.0 °C 1000.4 hPa Calm     70% 0.00 mm 558.22 W/m2
15:29 33.0 °C 27.0 °C 1000.5 hPa Calm     70% 0.00 mm 547.67 W/m2
15:34 33.0 °C 27.0 °C 1000.4 hPa Calm     70% 0.00 mm 164.42 W/m2
15:39 33.0 °C 27.0 °C 1000.4 hPa Calm   4 km/h 71% 0.00 mm 103.96 W/m2
15:44 33.0 °C 27.0 °C 1000.4 hPa Calm   4 km/h 71% 0.00 mm 88.86 W/m2
15:49 32.0 °C 26.0 °C 1000.6 hPa NNW 19 km/h 24 km/h 73% 0.00 mm 99.09 W/m2
15:54 32.0 °C 27.0 °C 1000.8 hPa NNW 15 km/h 24 km/h 76% 0.00 mm 113.35 W/m2
15:59 31.0 °C 27.0 °C 1000.8 hPa NNW 14 km/h 24 km/h 78% 0.00 mm 112.86 W/m2
16:04 31.0 °C 26.0 °C 1000.8 hPa NW 13 km/h 16 km/h 78% 0.00 mm 168.77 W/m2
16:09 31.0 °C 26.0 °C 1000.8 hPa NW 17 km/h 20 km/h 76% 0.00 mm 206.65 W/m2
16:14 31.0 °C 26.0 °C 1000.6 hPa NW 12 km/h 16 km/h 76% 0.00 mm 292.72 W/m2
16:19 32.0 °C 26.0 °C 1000.8 hPa South 9 km/h 12 km/h 73% 0.00 mm 367.25 W/m2
16:24 32.0 °C 26.0 °C 1001.1 hPa SSE 16 km/h 20 km/h 78% 0.00 mm 51.44 W/m2
16:29 30.0 °C 26.0 °C 1001.1 hPa SSE 19 km/h 24 km/h 84% 0.00 mm 18.06 W/m2
16:34 29.0 °C 26.0 °C 1001.6 hPa SE 17 km/h 24 km/h 96% 50.39 mm 9.07 W/m2
16:39 27.0 °C 26.0 °C 1001.4 hPa SE 17 km/h 20 km/h 98% 73.81 mm 43.76 W/m2
16:44 26.0 °C 26.0 °C 1001.0 hPa SE 7 km/h 12 km/h 98% 73.81 mm 69.84 W/m2
16:49 26.0 °C 26.0 °C 1000.9 hPa SSE 2 km/h 8 km/h 98% 23.39 mm 74.89 W/m2
16:54 26.0 °C 26.0 °C 1001.1 hPa SE 5 km/h 8 km/h 98% 0.00 mm 72.44 W/m2
16:59 26.0 °C 26.0 °C 1001.1 hPa SE 7 km/h 16 km/h 98% 0.00 mm 63.21 W/m2
17:04 26.0 °C 26.0 °C 1001.2 hPa SE 18 km/h 20 km/h 98% 0.00 mm 54.68 W/m2
17:09 26.0 °C 26.0 °C 1001.3 hPa SSE 15 km/h 20 km/h 98% 0.00 mm 46.92 W/m2
17:14 26.0 °C 26.0 °C 1001.4 hPa SSE 14 km/h 20 km/h 98% 0.00 mm 39.61 W/m2
17:19 26.0 °C 26.0 °C 1001.5 hPa SSE 5 km/h 16 km/h 97% 0.00 mm 30.82 W/m2
17:24 26.0 °C 26.0 °C 1001.6 hPa SE 10 km/h 12 km/h 98% 0.00 mm 26.33 W/m2
17:29 26.0 °C 26.0 °C 1002.0 hPa SSE 13 km/h 16 km/h 98% 0.00 mm 20.66 W/m2
17:34 26.0 °C 26.0 °C 1002.1 hPa SE 19 km/h 24 km/h 97% 0.00 mm 12.09 W/m2
17:39 26.0 °C 26.0 °C 1002.3 hPa SE 18 km/h 24 km/h 97% 7.19 mm 5.85 W/m2
17:44 26.0 °C 26.0 °C 1002.4 hPa SE 17 km/h 20 km/h 98% 14.40 mm 0.11 W/m2
17:49 26.0 °C 26.0 °C 1002.5 hPa South 13 km/h 16 km/h 98% 14.40 mm 0.00 W/m2
17:54 26.0 °C 26.0 °C 1002.5 hPa SSE 14 km/h 20 km/h 98% 14.40 mm 0.00 W/m2
17:59 26.0 °C 26.0 °C 1002.4 hPa SE 11 km/h 12 km/h 99% 19.81 mm 0.00 W/m2
18:04 26.0 °C 26.0 °C 1002.3 hPa ESE 17 km/h 20 km/h 99% 23.39 mm 0.00 W/m2
18:09 26.0 °C 25.0 °C 1002.4 hPa SSE 15 km/h 20 km/h 99% 19.81 mm 0.00 W/m2
18:14 25.0 °C 25.0 °C 1002.3 hPa SSE 15 km/h 24 km/h 99% 16.21 mm 0.00 W/m2
18:19 25.0 °C 25.0 °C 1002.5 hPa SSE 14 km/h 24 km/h 99% 12.60 mm 0.00 W/m2
18:24 25.0 °C 25.0 °C 1002.4 hPa SE 8 km/h 12 km/h 99% 8.99 mm 0.00 W/m2
18:29 25.0 °C 25.0 °C 1002.5 hPa SSE 10 km/h 12 km/h 99% 5.41 mm 0.00 W/m2
18:34 25.0 °C 25.0 °C 1002.5 hPa SE 10 km/h 12 km/h 99% 1.80 mm 0.00 W/m2
18:39 25.0 °C 25.0 °C 1002.6 hPa SE 15 km/h 20 km/h 99% 1.80 mm 0.00 W/m2
18:44 25.0 °C 25.0 °C 1002.8 hPa SE 15 km/h 20 km/h 99% 1.80 mm 0.00 W/m2
18:49 25.0 °C 25.0 °C 1002.8 hPa SE 11 km/h 12 km/h 99% 0.00 mm 0.00 W/m2
18:54 25.0 °C 25.0 °C 1002.6 hPa ESE 15 km/h 16 km/h 99% 1.80 mm 0.00 W/m2
18:59 25.0 °C 25.0 °C 1002.8 hPa SE 11 km/h 16 km/h 99% 1.80 mm 0.00 W/m2
19:04 25.0 °C 25.0 °C 1002.8 hPa SSE 13 km/h 16 km/h 99% 1.80 mm 0.00 W/m2
19:09 25.0 °C 25.0 °C 1003.0 hPa SE 14 km/h 16 km/h 99% 1.80 mm 0.00 W/m2
19:14 25.0 °C 25.0 °C 1003.1 hPa SSE 6 km/h 8 km/h 98% 1.80 mm 0.00 W/m2
19:19 26.0 °C 25.0 °C 1003.2 hPa SSE 6 km/h 12 km/h 98% 1.80 mm 0.00 W/m2
19:24 25.0 °C 25.0 °C 1003.2 hPa South 13 km/h 16 km/h 98% 1.80 mm 0.00 W/m2
19:29 25.0 °C 25.0 °C 1003.3 hPa SSE 14 km/h 16 km/h 98% 1.80 mm 0.00 W/m2
19:34 26.0 °C 25.0 °C 1003.3 hPa SSE 15 km/h 20 km/h 97% 0.00 mm 0.00 W/m2
19:39 26.0 °C 25.0 °C 1003.4 hPa SSE 14 km/h 16 km/h 97% 1.80 mm 0.00 W/m2
19:44 26.0 °C 25.0 °C 1003.2 hPa SSE 11 km/h 16 km/h 97% 1.80 mm 0.00 W/m2
19:49 26.0 °C 26.0 °C 1003.2 hPa SSE 9 km/h 12 km/h 98% 3.61 mm 0.00 W/m2
19:54 26.0 °C 25.0 °C 1003.2 hPa SE 15 km/h 16 km/h 97% 3.61 mm 0.00 W/m2
19:59 26.0 °C 25.0 °C 1003.4 hPa SE 14 km/h 16 km/h 97% 5.41 mm 0.00 W/m2
20:04 26.0 °C 25.0 °C 1003.4 hPa SSE 14 km/h 16 km/h 97% 3.61 mm 0.00 W/m2
20:09 26.0 °C 26.0 °C 1003.5 hPa SE 9 km/h 12 km/h 98% 5.41 mm 0.00 W/m2
20:14 26.0 °C 26.0 °C 1003.5 hPa SSE 10 km/h 12 km/h 98% 5.41 mm 0.00 W/m2
20:19 26.0 °C 26.0 °C 1003.5 hPa SSE 11 km/h 12 km/h 98% 5.41 mm 0.00 W/m2
20:24 26.0 °C 26.0 °C 1003.8 hPa SE 14 km/h 16 km/h 98% 3.61 mm 0.00 W/m2
20:29 26.0 °C 26.0 °C 1003.8 hPa SE 10 km/h 12 km/h 98% 5.41 mm 0.00 W/m2
20:34 26.0 °C 25.0 °C 1003.8 hPa SE 10 km/h 16 km/h 98% 7.19 mm 0.00 W/m2
20:39 26.0 °C 25.0 °C 1003.8 hPa SSE 8 km/h 12 km/h 98% 7.19 mm 0.00 W/m2
20:44 26.0 °C 26.0 °C 1003.5 hPa SE 13 km/h 16 km/h 99% 7.19 mm 0.00 W/m2
20:49 26.0 °C 25.0 °C 1003.4 hPa SSE 12 km/h 12 km/h 98% 7.19 mm 0.00 W/m2
20:54 26.0 °C 25.0 °C 1003.3 hPa SSE 13 km/h 16 km/h 98% 5.41 mm 0.00 W/m2
20:59 26.0 °C 25.0 °C 1003.2 hPa SE 12 km/h 16 km/h 98% 5.41 mm 0.00 W/m2
21:04 26.0 °C 25.0 °C 1003.5 hPa SSE 10 km/h 12 km/h 98% 3.61 mm 0.00 W/m2
21:09 26.0 °C 25.0 °C 1003.3 hPa SE 10 km/h 12 km/h 98% 1.80 mm 0.00 W/m2
21:14 26.0 °C 25.0 °C 1003.6 hPa SE 10 km/h 12 km/h 98% 0.00 mm 0.00 W/m2
21:19 26.0 °C 25.0 °C 1003.8 hPa SSE 6 km/h 8 km/h 98% 0.00 mm 0.00 W/m2
21:24 26.0 °C 25.0 °C 1003.8 hPa SE 11 km/h 16 km/h 98% 0.00 mm 0.00 W/m2
21:29 26.0 °C 25.0 °C 1003.6 hPa SSE 8 km/h 8 km/h 97% 0.00 mm 0.00 W/m2
21:34 26.0 °C 26.0 °C 1003.8 hPa SE 8 km/h 8 km/h 97% 0.00 mm 0.00 W/m2
21:39 26.0 °C 26.0 °C 1003.6 hPa SE 6 km/h 8 km/h 97% 0.00 mm 0.00 W/m2
21:44 26.0 °C 26.0 °C 1003.6 hPa SSE 9 km/h 12 km/h 97% 0.00 mm 0.00 W/m2
21:49 26.0 °C 26.0 °C 1003.6 hPa SE 9 km/h 12 km/h 97% 0.00 mm 0.00 W/m2
21:54 26.0 °C 26.0 °C 1003.8 hPa SSE 9 km/h 12 km/h 97% 0.00 mm 0.00 W/m2
21:59 26.0 °C 26.0 °C 1003.4 hPa SSE 9 km/h 12 km/h 97% 0.00 mm 0.00 W/m2
22:04 26.0 °C 26.0 °C 1003.5 hPa SSE 9 km/h 12 km/h 97% 0.00 mm 0.00 W/m2
22:09 26.0 °C 26.0 °C 1003.5 hPa SSE 8 km/h 12 km/h 97% 0.00 mm 0.00 W/m2
22:14 26.0 °C 26.0 °C 1003.5 hPa SSE 9 km/h 12 km/h 96% 0.00 mm 0.00 W/m2
22:19 26.0 °C 26.0 °C 1003.6 hPa SSE 3 km/h 4 km/h 97% 0.00 mm 0.00 W/m2
22:24 26.0 °C 26.0 °C 1003.7 hPa SSE 9 km/h 12 km/h 96% 0.00 mm 0.00 W/m2
22:29 26.0 °C 26.0 °C 1003.7 hPa SSE 10 km/h 12 km/h 96% 0.00 mm 0.00 W/m2
22:34 26.0 °C 26.0 °C 1003.7 hPa SSE 10 km/h 12 km/h 96% 0.00 mm 0.00 W/m2
22:39 26.0 °C 26.0 °C 1003.7 hPa SSE 12 km/h 16 km/h 96% 0.00 mm 0.00 W/m2
22:44 26.0 °C 26.0 °C 1003.9 hPa SE 12 km/h 16 km/h 95% 0.00 mm 0.00 W/m2
22:49 27.0 °C 26.0 °C 1003.9 hPa SSE 10 km/h 12 km/h 95% 0.00 mm 0.00 W/m2
22:54 27.0 °C 26.0 °C 1004.1 hPa SE 13 km/h 16 km/h 95% 0.00 mm 0.00 W/m2
22:59 27.0 °C 26.0 °C 1004.1 hPa SE 12 km/h 12 km/h 95% 0.00 mm 0.00 W/m2
23:04 27.0 °C 26.0 °C 1004.1 hPa SE 15 km/h 20 km/h 95% 0.00 mm 0.00 W/m2
23:09 27.0 °C 26.0 °C 1003.9 hPa SE 11 km/h 12 km/h 95% 0.00 mm 0.00 W/m2
23:14 27.0 °C 26.0 °C 1003.9 hPa SE 10 km/h 12 km/h 95% 0.00 mm 0.00 W/m2
23:19 26.0 °C 26.0 °C 1003.8 hPa SE 10 km/h 12 km/h 95% 0.00 mm 0.00 W/m2
23:24 26.0 °C 26.0 °C 1003.8 hPa SE 14 km/h 16 km/h 95% 0.00 mm 0.00 W/m2
23:29 26.0 °C 26.0 °C 1003.6 hPa SE 11 km/h 16 km/h 95% 0.00 mm 0.00 W/m2
23:34 26.0 °C 26.0 °C 1003.4 hPa SE 7 km/h 8 km/h 95% 0.00 mm 0.00 W/m2
23:39 26.0 °C 26.0 °C 1003.7 hPa ESE 5 km/h 8 km/h 95% 0.00 mm 0.00 W/m2
23:44 26.0 °C 26.0 °C 1003.4 hPa East 4 km/h 8 km/h 95% 0.00 mm 0.00 W/m2
23:49 26.0 °C 26.0 °C 1003.4 hPa ENE 4 km/h 8 km/h 96% 0.00 mm 0.00 W/m2
23:54 26.0 °C 26.0 °C 1003.4 hPa ESE 8 km/h 8 km/h 96% 0.00 mm 0.00 W/m2
23:59 26.0 °C 26.0 °C 1003.1 hPa ESE 6 km/h 8 km/h 96% 0.00 mm 0.00 W/m2
PIMOHWEATHER Philippines
Compliments of Weather Underground - 2 mb